Flag for Switzerland Weather past 2 weeks in Bülach, Zurich, Switzerland

Now
63 °F

Mild.


Feels Like: 63 °F
Forecast: 49 / 66 °F
Wind: 2 mph from Southeast

Location: Zurich-Kloten

Current Time: Aug 30, 2014 at 10:19:49 PM

Latest Report: Aug 30, 2014 at 9:00 PM


Visibility: N/A

Pressure: 30.06 "Hg

Humidity: 73%

Dew point: 54 °F

Location of BülachLocation

Historic Weather in Bülach — Graph

°F

Bülach temperature yesterday

Maximum temperature yesterday: 73 °F (at 3:00 PM)
Minimum temperature yesterday: 56 °F (at 4:00 AM)
Average temperature yesterday: 63 °F

Past Weeks' High & Low Weather Summary

 TemperatureHumidityPressure
High74 °F (Aug 28, 6:00 PM)99% (Aug 17, 4:00 AM)30.23 "Hg (Aug 17, 4:00 AM)
Low44 °F (Aug 17, 7:00 AM)40% (Aug 17, 4:00 PM)29.76 "Hg (Aug 26, 7:00 PM)
Average60 °F77%30.02 "Hg
* Reported Aug 15 9:00 PM — Aug 30 9:00 PM, Bülach, Weather by CustomWeather, © 2014

Note: Actual official high and low records may vary slightly from our data, if they occured in-between our weather recording intervals... More about our weather records

Advertising

Bülach weather history for previous 24 hours

 ConditionsComfort  
Time TempWeatherWind HumidityBarometerVisibility
9:00 PM
Aug 30
63 °FMild.2 mph73%30.06 "HgN/A
8:00 PM66 °FPassing clouds.3 mph65%30.05 "Hg19 mi
7:00 PM70 °FMild.7 mph57%30.03 "HgN/A
6:00 PM71 °FMild.7 mph52%30.03 "HgN/A
5:00 PM73 °FPassing clouds.7 mph53%30.03 "Hg19 mi
4:00 PM72 °FMild.5 mph54%30.04 "HgN/A
3:00 PM72 °FMild.6 mph54%30.06 "HgN/A
2:00 PM69 °FScattered clouds.3 mph56%30.08 "Hg19 mi
1:00 PM68 °FMild.6 mph66%30.10 "HgN/A
12:00 PM67 °FMild.6 mph72%30.11 "HgN/A
11:00 AM66 °FOvercast.5 mph79%30.12 "Hg12 mi
10:00 AM63 °FMild.1 mph85%30.12 "HgN/A
9:00 AM62 °FCool.1 mph91%30.12 "HgN/A
8:00 AM60 °FFog.2 mph97%30.12 "Hg6 mi
7:00 AM59 °FCool.No wind98%30.12 "HgN/A
6:00 AM61 °FCool.3 mph95%30.11 "HgN/A
5:00 AM61 °FOvercast.3 mph97%30.12 "Hg12 mi
4:00 AM62 °FCool.1 mph96%30.11 "HgN/A
3:00 AM61 °FCool.2 mph95%30.11 "HgN/A
2:00 AM62 °FOvercast.2 mph95%30.11 "Hg19 mi
1:00 AM62 °FCool.3 mph92%30.11 "HgN/A
12:00 AM63 °FMild.5 mph93%30.11 "HgN/A
11:00 PM
Aug 29
64 °FSprinkles. Overcast.2 mph95%30.09 "Hg12 mi
Weather by CustomWeather, © 2014

See weather overviewHow to use our weather pages